sat.trackr.live / text

‹ back to catalog

STARLINK-36581

NORAD 67543 · 2026-014M

PAYLOAD ACTIVE UNKNOWN

§ Identity

Operator
Country
US
Launch date
2026-01-22
Launch site
AFWTR
Launch vehicle
Mass (kg)
RCS (m²)

Purposes: comms

External: N2YO · Heavens-Above · Gunter

§ Orbital elements

Epoch: 2026-09-18T02:55:16.775616Z

Period
93.91 min
Inclination
97.2851°
Eccentricity
0.0001318
Mean motion
15.33455203 rev/d
Perigee alt
464.6 km
Apogee alt
466.4 km
Semi-major
6,843.6 km
B*
7.7262e-4
RAAN
146.5190°
Arg perigee
58.5875°
Mean anomaly
301.5497°
Rev number
3,827

§ Raw data

STARLINK-365811 67543U 26014M   26261.12172194  .00024959  00000+0  77262-3 0  99972 67543  97.2851 146.5190 0001318  58.5875 301.5497 15.33455203 38276

JSON: /api/v1/satellites/67543 · /tle

For live sub-satellite position, see the globe view (requires WebGL).

§ Visibility from observer

Set your observer location to see the next 7 days of passes ≥ 10°. The values pass through the URL so the page stays shareable.

No JS? Fill the form by hand. The geolocation button needs JavaScript.